Starlink 4643

operational
NORAD ID: 54824 Int'l Des: 2022-177 Owner: SPXS Country: US Constellation: starlink
LEOCIRCULAR

Starlink 4643について

説明を読み込み中...

リアルタイム位置

3D地球を読み込み中...

次回通過

高度履歴

Altitude vs Time

uPlot chart will show altitude changes over time

軌道要素

1 54824U 22177E 25351.32690660 .00000063 00000-0 19764-4 0 9990
2 54824 43.0021 221.0591 0001135 266.7078 93.3634 15.02535207164561
Epoch: Dec 17, 2025 • Age: 5 hours

現在のステータス

高度 559.8 km
速度 7.59 km/s
衛星直下点 27.24°N, 81.46°E
打ち上げ日 Dec 28, 2022
運用期間 2.9 years
タイプ internet

技術仕様

分類 Payload
質量 305.00 kg
乾燥質量 290.00 kg
総質量 305.00 kg
長さ 0.20 m
直径 2.80 m
スパン 9.00 m
形状 Box + pan
製造者 SPXS
バスタイプ Starlink
フェーズステータス In Orbit
所有者/国 SPXS/US

大規模コンステレーション

Loading constellations...